RH
100 100 92 87 65 47 33 26 20 19 21 21 21 23 25 27 39 48 53 36 30 28 24 27 36 36 38 90 100 100 100 97 100 100 100 100 100 90 63 55 59 88 100 100 100
100 90 80 54 37 22 16 14 12 12 13 13 16 20 22 24 24 26 27 24 22 23 20 20 30 39 32 50 91 85 100 99 99 100 98 100 95 100 79 55 54 64 93 100 94
91 54 48 34 24 21 17 14 13 14 16 16 16 17 18 21 24 25 23 22 20 18 20 21 23 34 42 39 56 62 100 100 98 98 99 94 88 84 81 74 62 44 78 95 100
54 50 41 27 25 27 22 21 18 17 17 18 18 19 18 19 19 19 20 18 17 19 23 28 25 26 37 37 44 47 72 100 96 100 83 80 75 100 95 86 56 56 58 87 100
61 50 34 29 27 31 30 30 32 28 25 25 23 22 20 20 18 17 17 18 19 19 19 19 23 28 27 36 37 48 53 89 100 100 100 74 67 67 100 99 69 68 50 60 89
74 41 37 34 28 32 33 31 32 33 33 29 27 24 21 19 19 19 20 20 18 16 17 19 19 21 22 25 34 41 47 49 94 100 100 97 68 89 100 100 90 52 47 50 58
71 41 37 36 32 35 39 36 36 37 32 29 25 23 22 20 21 21 19 17 15 13 13 15 15 17 23 25 28 32 38 43 46 99 100 99 97 72 100 87 95 73 52 38 42
74 42 37 37 34 37 37 44 41 40 36 32 29 27 25 24 22 20 19 18 17 16 16 16 17 16 15 18 25 26 26 28 31 40 96 100 100 97 71 72 94 65 48 43 44
79 44 39 38 35 38 42 40 40 49 51 47 41 38 36 36 32 29 29 26 24 23 21 19 16 16 17 16 16 17 22 22 29 23 38 100 100 100 68 83 84 82 68 53 32
88 50 40 39 37 37 41 43 38 37 38 38 38 37 34 32 30 27 26 26 25 25 23 21 20 19 18 16 15 15 12 14 22 33 24 50 100 98 91 68 86 95 99 91 77
84 68 40 40 37 37 37 39 38 34 33 37 38 36 33 33 32 32 32 30 28 27 23 20 18 16 14 14 13 14 13 11 11 13 18 20 63 81 93 87 76 88 96 100 100
86 80 48 40 39 35 34 39 39 38 38 36 33 33 34 37 36 32 33 31 28 26 24 20 17 16 15 14 14 12 10 10 9 8 8 14 19 72 85 89 78 83 97 99 100
84 83 64 40 40 38 33 38 38 37 36 34 33 36 38 41 35 33 30 29 28 25 20 15 13 11 11 12 12 10 7 6 6 6 5 6 8 17 61 100 67 66 73 78 90
91 88 77 46 40 42 37 37 41 40 36 34 34 38 44 42 39 35 30 27 31 27 20 15 12 10 10 12 8 7 6 6 6 5 6 5 7 8 13 53 94 58 53 70 79
93 89 86 58 41 41 46 40 44 43 38 36 35 35 37 36 36 33 31 27 26 24 21 15 11 9 11 11 8 7 5 5 5 4 5 6 6 7 8 12 42 72 58 51 59
83 92 87 73 51 43 46 44 46 48 43 40 40 38 36 32 32 32 34 33 28 25 21 14 12 10 11 10 7 6 6 6 5 5 5 5 6 7 7 9 11 30 58 72 68
77 94 99 85 67 50 47 52 47 50 50 44 42 40 37 36 36 35 42 35 32 28 23 19 13 10 12 10 7 7 6 6 6 6 6 5 6 6 8 8 9 12 24 59 86
72 94 100 100 81 65 50 55 56 54 54 50 46 44 42 41 40 38 44 37 33 29 25 22 17 11 13 13 9 7 5 5 4 5 6 6 6 6 8 9 10 11 15 42 71
91 83 99 100 98 82 64 53 60 61 58 57 54 50 47 45 47 45 42 43 38 32 26 23 24 15 14 15 10 7 6 5 5 5 5 6 6 7 9 9 9 10 13 40 85
100 93 94 97 100 98 84 67 61 63 68 67 65 61 55 53 53 49 44 44 39 32 28 31 34 24 16 17 14 9 7 5 5 6 5 6 7 7 8 8 10 10 12 20 74
100 100 98 99 100 100 100 88 74 69 70 69 68 70 65 61 63 58 50 43 38 34 33 40 42 34 24 19 18 14 9 6 5 5 6 7 7 8 8 8 9 11 11 14 23
100 100 100 90 100 100 100 100 94 80 76 75 76 73 71 72 72 67 53 46 40 36 36 42 47 37 32 26 20 19 15 10 7 6 7 8 8 7 8 9 9 10 10 15 17
92 100 100 100 96 100 100 100 100 100 94 84 80 77 77 76 75 75 66 54 43 39 38 44 50 39 35 33 29 23 20 16 11 10 8 9 10 10 8 8 9 9 11 12 13
85 94 100 100 100 100 100 100 100 99 100 100 97 86 82 81 84 90 78 63 49 43 42 47 52 44 37 37 33 30 29 23 18 13 12 10 10 11 11 9 10 10 10 10 11
96 80 99 100 100 100 94 100 100 100 97 100 100 98 91 89 96 94 82 69 58 50 48 48 54 48 38 38 37 36 36 32 24 19 15 14 13 12 13 12 10 11 12 11 11
93 84 97 100 100 100 100 100 100 100 94 94 100 100 93 96 94 89 91 67 60 59 54 48 54 53 44 39 36 40 40 35 33 29 21 16 15 15 13 12 12 11 10 11 13
100 97 99 100 100 100 100 100 100 92 100 92 97 100 95 100 98 93 98 67 60 60 57 49 52 61 51 43 36 38 41 40 35 31 31 27 19 15 14 13 12 10 10 11 12
Wind_Speed
45 50 54 54 61 65 65 65 63 63 63 66 68 73 76 75 75 75 74 73 70 72 69 73 72 82 87 88 83 84 79 71 65 70 66 68 71 74 71 60 55 53 52 51 47
50 52 53 54 48 51 55 53 52 54 57 57 58 60 63 65 70 69 68 68 67 69 69 72 72 75 84 88 88 84 81 78 75 74 74 72 75 76 74 66 58 57 57 55 54
45 49 43 37 39 45 38 34 35 39 43 48 50 54 54 56 56 59 60 62 62 65 68 68 73 77 80 88 89 85 80 82 82 80 80 80 79 80 78 72 67 62 59 58 58
42 33 32 30 32 29 19 14 16 23 30 37 39 42 45 46 48 51 53 56 59 63 66 67 70 77 83 88 88 88 84 85 85 84 85 84 83 82 80 79 77 68 64 60 59
28 29 28 28 25 22 14 4 4 11 19 23 28 34 36 39 42 46 48 51 54 57 61 65 69 76 81 88 91 90 88 89 85 88 87 89 88 88 77 83 83 77 71 67 64
27 25 26 25 22 19 14 4 2 6 11 16 22 26 30 33 36 39 42 44 44 47 53 60 65 72 78 85 90 94 94 90 91 90 91 89 93 94 78 87 88 82 76 73 70
25 23 23 21 20 15 11 6 3 6 9 12 17 21 26 30 32 35 37 39 42 44 45 53 61 67 73 80 87 93 96 98 96 96 95 98 91 88 86 95 92 89 85 76 76
25 22 22 21 19 15 12 7 7 7 9 11 14 17 21 23 25 28 30 32 36 39 42 46 51 58 66 71 77 87 92 98 105 103 101 101 89 91 100 100 96 98 91 81 78
25 22 21 21 20 15 14 11 7 6 8 10 12 15 17 18 20 20 22 24 27 31 35 39 44 50 57 65 72 80 87 93 96 108 107 103 96 100 99 104 102 101 99 90 81
25 22 21 22 20 17 16 14 14 12 11 12 14 15 16 17 17 16 19 21 24 29 32 33 37 43 51 59 66 74 81 88 96 102 108 107 101 105 103 102 105 103 100 97 86
25 23 22 22 22 20 18 17 17 17 16 16 16 16 16 16 17 17 20 23 27 32 35 36 40 46 52 57 63 67 73 80 89 98 103 103 105 109 110 102 108 108 106 97 94
26 24 23 24 24 23 20 21 19 19 18 19 18 18 19 19 19 19 24 28 33 37 40 40 44 47 55 60 67 71 73 78 80 88 92 95 98 111 111 107 108 114 113 108 100
28 26 25 25 25 25 24 23 22 22 21 21 21 20 21 22 24 25 30 33 38 42 44 44 47 49 53 60 69 77 75 70 68 80 79 85 85 97 113 116 117 114 114 115 107
29 28 28 27 27 26 26 25 25 24 25 24 24 23 25 26 29 30 34 35 40 46 48 49 50 50 53 59 68 77 75 73 70 65 75 76 83 93 98 115 119 115 115 115 112
27 29 30 28 29 28 29 28 28 28 28 27 28 28 29 30 31 33 38 39 41 46 51 54 56 49 47 55 59 65 66 58 61 58 64 75 78 88 92 100 115 119 116 116 117
28 28 30 30 30 31 30 30 31 31 30 30 31 31 32 34 34 34 38 41 42 47 52 54 58 52 49 49 48 53 58 57 54 59 63 71 76 85 92 97 104 114 119 119 118
27 29 30 31 31 32 32 33 34 35 34 32 33 34 34 34 34 34 38 41 46 50 54 59 61 50 51 48 38 36 43 48 50 54 65 72 75 85 91 95 101 108 114 121 123
27 30 30 31 32 33 34 35 36 37 37 36 35 35 35 35 36 35 38 41 44 48 53 58 62 57 51 48 39 35 32 38 44 52 60 68 77 83 85 89 97 106 112 118 124
31 31 32 31 33 34 35 36 38 38 38 38 38 37 36 37 37 37 38 42 44 47 51 56 60 59 53 47 36 30 26 29 37 46 56 64 74 82 88 91 90 101 107 117 122
37 33 33 32 33 34 35 37 37 36 37 38 38 38 37 38 38 38 38 39 42 44 47 50 54 59 55 46 37 28 22 21 29 40 51 62 72 81 90 88 90 94 101 110 121
41 39 36 34 33 34 36 37 38 37 37 38 37 37 37 37 38 38 38 37 38 41 42 44 48 53 57 52 43 32 22 17 22 34 46 56 68 77 86 88 88 94 99 107 114
44 44 40 35 34 37 38 37 39 38 38 38 38 37 36 36 36 37 37 36 35 38 38 40 43 46 52 54 48 35 28 18 15 24 34 45 57 72 79 87 90 96 94 104 115
51 45 45 40 36 39 40 39 38 39 39 39 39 38 37 36 36 34 35 35 34 34 36 37 39 41 44 48 50 45 32 24 16 13 26 35 48 60 72 81 89 94 99 105 109
56 52 45 44 43 44 42 40 39 39 39 39 39 37 37 36 35 33 34 33 32 32 33 35 36 37 38 42 47 45 44 33 20 14 14 27 40 51 63 73 81 86 95 102 101
56 55 52 45 45 48 44 42 42 41 39 39 38 37 36 35 34 33 33 33 32 32 32 31 32 33 33 36 39 41 42 39 31 18 12 17 29 43 54 67 74 77 86 94 98
59 57 55 54 52 48 44 44 45 45 41 38 38 37 35 35 35 34 33 33 32 31 31 31 30 29 31 31 33 34 37 38 33 30 20 11 19 31 44 56 68 75 79 87 96
61 58 57 54 56 53 49 50 48 41 43 40 37 38 36 36 35 35 33 35 34 31 31 30 30 28 29 29 31 30 32 35 35 30 27 23 17 20 32 44 54 67 77 84 92
Wind_Direction
260 262 263 265 271 274 271 268 263 258 253 249 246 245 243 242 242 242 244 245 244 243 239 237 233 232 229 231 232 234 231 229 221 219 222 231 236 237 236 226 219 211 217 219 221
264 266 269 274 276 280 279 272 262 253 247 244 242 242 239 238 238 239 239 239 239 239 239 235 233 232 231 230 230 231 231 226 229 218 220 227 233 236 239 233 220 220 215 223 224
268 275 273 271 284 292 285 271 257 246 240 237 236 234 233 233 233 233 233 235 237 239 239 235 233 233 230 228 229 230 227 228 225 227 218 223 227 232 236 237 228 218 220 220 226
273 274 274 278 297 311 292 273 245 234 228 225 226 227 227 228 229 231 232 235 237 237 237 236 234 233 231 230 230 230 229 226 226 225 224 220 225 231 235 238 233 223 217 220 222
272 273 277 286 306 325 315 280 222 214 212 208 215 218 221 224 225 227 229 233 235 236 236 237 235 232 232 232 232 230 230 226 225 229 227 223 225 228 230 238 237 231 220 219 221
269 270 277 291 305 328 329 333 204 207 213 211 213 217 220 223 225 229 232 235 238 239 240 239 237 236 235 234 233 233 229 229 225 226 229 225 222 227 225 236 238 236 227 223 219
264 266 274 285 297 314 323 313 229 199 210 219 221 221 226 227 230 235 237 240 242 244 244 245 242 240 239 237 236 235 233 232 230 225 227 227 225 224 228 231 235 236 235 223 222
261 259 269 276 286 298 303 301 260 236 222 216 215 219 225 230 232 236 240 242 245 248 248 248 248 248 248 245 243 239 236 236 235 230 225 227 222 224 226 231 232 237 234 229 226
258 254 259 265 272 280 279 274 272 241 227 224 222 223 226 229 232 233 239 242 247 250 252 253 252 251 250 249 247 243 240 237 237 235 229 224 224 227 224 228 232 235 238 234 226
254 251 251 259 262 267 269 259 251 242 236 231 229 226 226 229 233 235 240 246 250 255 256 257 259 260 258 253 252 250 247 243 239 238 234 227 223 226 226 225 231 232 235 239 233
249 251 247 256 258 258 263 252 244 241 242 238 235 235 233 236 238 241 252 261 266 270 273 274 274 272 270 266 259 254 252 247 244 243 241 232 224 227 229 225 227 232 232 234 237
249 249 247 250 255 253 253 244 240 239 239 238 232 232 234 240 246 255 266 273 276 275 275 273 274 272 272 272 270 268 259 250 248 245 244 243 230 226 229 229 226 228 233 232 232
255 250 247 246 252 254 250 244 240 242 240 236 231 234 241 251 258 266 272 280 282 281 280 278 277 274 272 277 274 264 264 259 249 248 246 242 240 232 227 229 229 228 230 234 231
257 254 249 245 248 253 251 247 240 242 244 242 242 242 251 258 268 273 279 283 288 290 290 292 288 286 288 287 272 267 265 262 260 242 240 238 234 235 229 227 230 232 233 235 235
257 255 250 246 247 250 251 246 241 242 246 245 249 253 258 262 269 279 284 285 290 294 297 298 298 294 302 289 276 274 272 262 252 245 232 233 231 232 229 228 229 230 232 234 237
256 255 252 246 246 247 250 248 241 240 245 248 251 255 262 267 273 279 288 292 296 298 301 304 307 309 313 302 282 270 263 259 248 241 233 227 227 228 227 224 225 230 230 233 235
257 255 253 249 247 247 250 249 245 242 244 249 253 258 263 269 275 281 290 297 304 308 310 309 310 316 327 312 293 282 269 257 247 235 231 225 221 226 227 224 223 225 227 229 232
260 252 253 250 248 249 247 249 250 247 246 249 255 260 266 271 277 283 293 300 305 308 311 315 316 318 328 326 310 300 274 258 246 234 227 225 223 224 225 226 223 223 224 226 230
252 254 249 252 248 250 251 249 250 252 253 253 256 261 268 273 280 288 296 304 307 309 314 317 318 320 330 337 326 311 290 260 243 230 224 221 220 222 220 224 223 223 223 223 227
249 249 249 246 250 248 253 254 253 254 256 257 258 263 269 276 284 291 296 301 305 311 316 319 321 323 330 343 339 329 308 268 242 228 224 220 219 219 221 221 220 223 224 224 225
248 248 247 247 247 250 249 254 256 256 257 260 263 265 270 277 285 291 294 300 306 313 317 321 322 328 331 341 352 346 330 293 251 230 221 223 222 219 222 223 221 222 222 224 226
239 245 246 245 245 248 249 251 254 258 261 263 265 269 272 278 284 289 294 301 309 315 319 325 325 330 334 339 348 0 351 327 277 242 227 223 226 225 221 222 221 223 223 222 224
234 239 242 243 242 246 250 251 253 256 260 263 266 268 272 278 282 288 294 301 311 314 321 323 325 330 334 339 343 353 6 356 331 265 241 227 223 228 228 225 222 222 224 226 227
234 234 239 240 244 242 246 250 253 256 258 261 264 268 270 274 279 287 291 298 308 312 319 324 325 329 333 337 340 349 357 2 353 327 257 240 228 228 229 229 228 226 225 229 229
232 233 237 236 243 245 244 246 253 255 257 258 262 266 268 270 276 282 287 295 303 309 316 320 321 326 329 335 340 347 352 354 357 352 315 259 240 235 228 232 231 228 226 229 231
230 230 235 235 240 241 243 245 248 252 255 258 261 264 265 269 274 279 285 291 297 304 308 316 316 322 325 329 336 345 351 348 353 352 343 296 268 246 239 233 231 233 230 227 229
229 228 232 234 239 241 239 245 246 250 254 256 260 263 265 267 272 277 283 287 293 298 301 310 312 318 321 323 326 339 346 347 345 347 347 337 308 264 253 242 238 235 232 232 231